Regional Weather Roundup
Issued by NWS

Home | Current Version | Previous Version | Graphics & Text | Print | Product List | Glossary On
Versions: 1 2 3 4 5 6 7 8 9 10 11 12 13 14 15 16 17 18 19 20 21 22 23 24 25 26 27 28 29 30 31 32 33 34 35 36 37 38 39 40 41 42 43 44 45 46 47 48 49 50
944
ASUS44 KMEG 222210
RWRTN
TENNESSEE HOURLY STATE WEATHER ROUNDUP
NATIONAL WEATHER SERVICE MEMPHIS TN
500 PM CDT TUE AUG 22 2017

TNZ002-004-019-021-049-052-054-088>092-222300-
WEST TENNESSEE

CITY           SKY/WX    TMP DP  RH WIND       PRES   REMARKS
MEMPHIS INTL   MOSUNNY   92  73  53 W14       29.94F HX 100
NWS MEMPHIS      N/A     93 N/A N/A MISG        N/A
JACKSON        MOSUNNY   92  76  59 SW14      29.92F HX 104
DYERSBURG      PTSUNNY   85  71  63 N10       29.96R HX  90
SOMERVILLE     SUNNY     91  75  59 MISG      29.93S HX 102
COVINGTON      PTSUNNY   90  73  58 NW10      29.93S HX  98
BOLIVAR        MOSUNNY   91  73  55 SW9G16    29.93S HX 100
PARIS          CLOUDY    75  75 100 N10G17    29.95R FOG
HUNTINGDON     CLOUDY    81  75  83 N12G23    29.92R
LEXINGTON      PTSUNNY   91  73  55 SW9       29.92R HX 100
SELMER         MOSUNNY   90  72  55 SW8G18    29.94R HX  96
SAVANNAH       MOSUNNY   93  70  46 SW13G21   29.92S HX  99
$$

TNZ008-025-027-028-033-062-065-066-222300-
NORTH MIDDLE TENNESSEE

CITY           SKY/WX    TMP DP  RH WIND       PRES   REMARKS
NASHVILLE      PTSUNNY   90  68  48 SW9       29.94S HX  94
PORTLAND       PTSUNNY   77  73  88 SW6       29.96R FOG
CLARKSVILLE    CLOUDY    76  71  85 N17G24    29.94R THUNDER
SMYRNA         MOSUNNY   91  71  51 VRB5G18   29.95R HX  97
COOKEVILLE     MOSUNNY   82  72  69 N3        29.98F
GALLATIN       SUNNY     91  72  52 VRB7G15   29.95F HX  98
CROSSVILLE     PTSUNNY   85  67  54 W12G17    30.03F
$$

TNZ061-075-076-078-094-096-097-222300-
SOUTH MIDDLE TENNESSEE

CITY           SKY/WX    TMP DP  RH WIND       PRES   REMARKS
FAYETTEVILLE   SUNNY     90  70  51 SW9G15    29.98S HX  95
TULLAHOMA      SUNNY     88  64  45 S14       30.00F
WINCHESTER     MOSUNNY   90  70  51 SW10      29.99F HX  95
MCMINNVILLE    MOSUNNY   90  72  55 SW7       29.98F HX  96
COLUMBIA       SUNNY     90  72  55 SW12      29.92S HX  96
SHELBYVILLE    SUNNY     88  70  55 SW13G20   29.96F HX  92
$$

TNZ017-018-042-046-047-222300-
NORTHEAST TENNESSEE

CITY           SKY/WX    TMP DP  RH WIND       PRES   REMARKS
TRI CITIES     MOSUNNY   88  63  43 SW9       29.99F
ELIZABETHTON   SUNNY     88  63  42 W8        30.00F
$$

TNZ012-013-036-069-073-074-222300-
CENTRAL EAST TENNESSEE

CITY           SKY/WX    TMP DP  RH WIND       PRES   REMARKS
KNOXVILLE      MOSUNNY   89  64  43 SW14      29.96F HX  90
OAK RIDGE      SUNNY     90  67  46 VRB6      29.98F HX  93
DOWNTOWN KNOXV SUNNY     90  68  48 W5G14     29.95F HX  93
GATLINBURG     SUNNY     93  61  33 W12       29.96F HX  93
MORRISTOWN     SUNNY     90  63  40 W10       29.98S HX  90
JACKSBORO      MOSUNNY   84  73  70 CALM      30.00F HX  91
$$

TNZ083-085-099-222300-
SOUTHEAST TENNESSEE

CITY           SKY/WX    TMP DP  RH WIND       PRES   REMARKS
CHATTANOOGA    MOSUNNY   91  70  49 S10       29.98F HX  96
DAYTON         CLEAR     91  68  46 S12       29.95S HX  95
$$

SKY/WX REPORTED AS FAIR MEANS FEW OR NO CLOUDS BELOW
12 THOUSAND FEET.





USA.gov is the U.S. government's official web portal to all federal, state and local government web resources and services.